When you browse on this site, cookies collect data to enhance your experience and personalize the content and advertising you see.
Visit our Privacy Policy to learn more. By continuing to use the site, you agree to this use of cookies and data.
  • In Hungary
  • List of Countries
  • For 7 days
  • Water Temperature
  • Satellite Maps
  • Weather Map
  • News
  • Weather Widgets
  • user-avatar
    Login

    Hourly Weather Drwinia

    Today, 25 May, Saturday

    Time Temperature Precipitation Wind Pressure Humidity
    00:00 +13°C° 0 mm 2 mps 743 mmHg 92%
    01:00 +12°C° 0 mm 2 mps 743 mmHg 93%
    02:00 +12°C° 0 mm 2 mps 743 mmHg 93%
    03:00 +10°C° 0 mm 2 mps 743 mmHg 93%
    04:00 +10°C° 0 mm 2 mps 743 mmHg 93%
    05:00 +12°C° 0 mm 2 mps 743 mmHg 90%
    06:00 +14°C° 0 mm 2 mps 743 mmHg 86%
    07:00 +15°C° 0 mm 2 mps 743 mmHg 82%
    08:00 +17°C° 0 mm 3 mps 743 mmHg 75%
    09:00 +18°C° 0 mm 3 mps 743 mmHg 67%
    10:00 +20°C° 0 mm 3 mps 743 mmHg 60%
    11:00 +20°C° 0 mm 3 mps 743 mmHg 58%
    12:00 +21°C° 0 mm 3 mps 743 mmHg 57%
    13:00 +22°C° 0 mm 3 mps 743 mmHg 55%
    14:00 +22°C° 0 mm 3 mps 743 mmHg 57%
    15:00 +22°C° 0 mm 3 mps 742 mmHg 59%
    16:00 +22°C° 0 mm 3 mps 742 mmHg 61%
    17:00 +20°C° 0.2 mm 2 mps 742 mmHg 68%
    18:00 +19°C° 0.2 mm 2 mps 742 mmHg 74%
    19:00 +17°C° 0.2 mm 2 mps 742 mmHg 81%
    20:00 +16°C° 0 mm 1 mps 743 mmHg 83%
    21:00 +15°C° 0 mm 1 mps 743 mmHg 86%
    22:00 +14°C° 0 mm 1 mps 743 mmHg 88%
    23:00 +14°C° 0 mm 1 mps 743 mmHg 89%

    Tomorrow, 26 May, Sunday

    Time Temperature Precipitation Wind Pressure Humidity
    00:00 +14°C° 0 mm 1 mps 744 mmHg 90%
    01:00 +13°C° 0 mm 1 mps 744 mmHg 90%
    02:00 +13°C° 0 mm 1 mps 744 mmHg 91%
    03:00 +13°C° 0 mm 1 mps 744 mmHg 91%
    04:00 +13°C° 0 mm 1 mps 744 mmHg 91%
    05:00 +14°C° 0 mm 1 mps 744 mmHg 87%
    06:00 +16°C° 0 mm 1 mps 744 mmHg 84%
    07:00 +18°C° 0 mm 1 mps 744 mmHg 80%
    08:00 +18°C° 0.1 mm 2 mps 744 mmHg 77%
    09:00 +20°C° 0.1 mm 2 mps 744 mmHg 73%
    10:00 +21°C° 0.1 mm 2 mps 744 mmHg 69%
    11:00 +21°C° 0.5 mm 2 mps 743 mmHg 70%
    12:00 +23°C° 0.5 mm 2 mps 743 mmHg 70%
    13:00 +22°C° 0.5 mm 3 mps 743 mmHg 71%
    14:00 +23°C° 1.1 mm 2 mps 743 mmHg 72%
    15:00 +23°C° 1.1 mm 2 mps 743 mmHg 74%
    16:00 +23°C° 1.1 mm 2 mps 742 mmHg 75%
    17:00 +20°C° 0.6 mm 2 mps 742 mmHg 78%
    18:00 +19°C° 0.6 mm 2 mps 743 mmHg 81%
    19:00 +19°C° 0.6 mm 1 mps 743 mmHg 84%
    20:00 +18°C° 0 mm 1 mps 743 mmHg 86%
    21:00 +16°C° 0 mm 1 mps 743 mmHg 87%
    22:00 +16°C° 0 mm 1 mps 743 mmHg 89%
    23:00 +15°C° 0 mm 2 mps 743 mmHg 90%

    Day after tomorrow, 27 May, Monday

    Time Temperature Precipitation Wind Pressure Humidity
    00:00 +15°C° 0 mm 2 mps 743 mmHg 90%
    01:00 +14°C° 0 mm 2 mps 743 mmHg 91%
    02:00 +14°C° 0 mm 2 mps 743 mmHg 91%
    03:00 +14°C° 0 mm 2 mps 743 mmHg 91%
    04:00 +14°C° 0 mm 2 mps 742 mmHg 91%
    05:00 +16°C° 0 mm 2 mps 743 mmHg 88%
    06:00 +17°C° 0 mm 2 mps 743 mmHg 84%
    07:00 +19°C° 0 mm 2 mps 743 mmHg 81%
    08:00 +21°C° 0.1 mm 2 mps 743 mmHg 75%
    09:00 +23°C° 0.1 mm 2 mps 743 mmHg 70%
    10:00 +24°C° 0.1 mm 2 mps 742 mmHg 64%
    11:00 +24°C° 0.5 mm 3 mps 742 mmHg 67%
    12:00 +24°C° 0.5 mm 3 mps 742 mmHg 70%
    13:00 +22°C° 0.5 mm 3 mps 742 mmHg 72%
    14:00 +24°C° 0.1 mm 3 mps 742 mmHg 72%
    15:00 +24°C° 0.1 mm 2 mps 742 mmHg 71%
    16:00 +24°C° 0.1 mm 1 mps 742 mmHg 70%
    17:00 +23°C° 0 mm 1 mps 741 mmHg 74%
    18:00 +22°C° 0 mm 1 mps 741 mmHg 77%
    19:00 +21°C° 0 mm 1 mps 741 mmHg 81%
    20:00 +20°C° 0.2 mm 1 mps 741 mmHg 83%
    21:00 +20°C° 0.2 mm 1 mps 741 mmHg 85%
    22:00 +17°C° 0.2 mm 0 mps 741 mmHg 87%
    23:00 +19°C° 0.1 mm 1 mps 741 mmHg 89%

    28 May, Tuesday

    Time Temperature Precipitation Wind Pressure Humidity
    00:00 +19°C° 0.1 mm 1 mps 740 mmHg 90%
    01:00 +18°C° 0.1 mm 1 mps 740 mmHg 92%
    02:00 +18°C° 1 mm 1 mps 740 mmHg 93%
    03:00 +18°C° 1 mm 1 mps 739 mmHg 95%
    04:00 +18°C° 1 mm 1 mps 739 mmHg 96%
    05:00 +18°C° 1.8 mm 2 mps 739 mmHg 95%
    06:00 +18°C° 1.8 mm 2 mps 739 mmHg 94%
    07:00 +19°C° 1.8 mm 2 mps 739 mmHg 93%
    08:00 +20°C° 0.1 mm 2 mps 738 mmHg 84%
    09:00 +23°C° 0.1 mm 2 mps 738 mmHg 76%
    10:00 +25°C° 0.1 mm 2 mps 738 mmHg 68%
    11:00 +25°C° 0.8 mm 1 mps 738 mmHg 66%
    12:00 +26°C° 0.8 mm 1 mps 738 mmHg 65%
    13:00 +24°C° 0.8 mm 0 mps 737 mmHg 63%
    14:00 +26°C° 1.8 mm 1 mps 737 mmHg 68%
    15:00 +25°C° 1.8 mm 1 mps 737 mmHg 72%
    16:00 +24°C° 1.8 mm 1 mps 737 mmHg 77%
    17:00 +23°C° 0.1 mm 1 mps 737 mmHg 79%
    18:00 +22°C° 0.1 mm 1 mps 737 mmHg 81%
    19:00 +19°C° 0.1 mm 0 mps 737 mmHg 83%
    20:00 +20°C° 1.1 mm 1 mps 737 mmHg 86%
    21:00 +19°C° 1.1 mm 1 mps 737 mmHg 89%
    22:00 +17°C° 1.1 mm 2 mps 737 mmHg 92%
    23:00 +17°C° 0.6 mm 2 mps 737 mmHg 93%

    29 May, Wednesday

    Time Temperature Precipitation Wind Pressure Humidity
    00:00 +16°C° 0.6 mm 3 mps 737 mmHg 93%
    01:00 +16°C° 0.6 mm 3 mps 737 mmHg 94%
    02:00 +14°C° 0 mm 3 mps 738 mmHg 95%
    03:00 +14°C° 0 mm 3 mps 738 mmHg 95%
    04:00 +13°C° 0 mm 3 mps 738 mmHg 96%
    05:00 +14°C° 0 mm 3 mps 739 mmHg 94%
    06:00 +16°C° 0 mm 3 mps 739 mmHg 91%
    07:00 +17°C° 0 mm 3 mps 740 mmHg 89%
    08:00 +17°C° 0.1 mm 4 mps 740 mmHg 89%
    09:00 +17°C° 0.1 mm 4 mps 740 mmHg 89%
    10:00 +17°C° 0.1 mm 4 mps 741 mmHg 88%
    11:00 +16°C° 0.1 mm 5 mps 741 mmHg 88%
    12:00 +15°C° 0.1 mm 5 mps 742 mmHg 88%
    13:00 +15°C° 0.1 mm 5 mps 742 mmHg 88%
    14:00 +14°C° 0.1 mm 5 mps 742 mmHg 88%
    15:00 +13°C° 0.1 mm 5 mps 743 mmHg 88%
    16:00 +12°C° 0.1 mm 5 mps 743 mmHg 89%
    17:00 +12°C° 0 mm 4 mps 744 mmHg 88%
    18:00 +12°C° 0 mm 3 mps 744 mmHg 88%
    19:00 +13°C° 0 mm 2 mps 745 mmHg 88%
    20:00 +12°C° 0 mm 2 mps 745 mmHg 88%
    21:00 +12°C° 0 mm 2 mps 746 mmHg 89%
    22:00 +12°C° 0 mm 2 mps 747 mmHg 89%
    23:00 +12°C° 0 mm 2 mps 747 mmHg 90%

    30 May, Thursday

    Time Temperature Precipitation Wind Pressure Humidity
    00:00 +10°C° 0 mm 2 mps 747 mmHg 91%
    01:00 +11°C° 0 mm 1 mps 747 mmHg 92%
    02:00 +11°C° 0.6 mm 1 mps 748 mmHg 93%
    03:00 +11°C° 0.6 mm 1 mps 748 mmHg 94%
    04:00 +11°C° 0.6 mm 1 mps 748 mmHg 95%
    05:00 +11°C° 0.9 mm 1 mps 749 mmHg 94%
    06:00 +11°C° 0.9 mm 1 mps 749 mmHg 92%
    07:00 +11°C° 0.9 mm 1 mps 749 mmHg 91%
    08:00 +12°C° 0 mm 1 mps 749 mmHg 87%
    09:00 +13°C° 0 mm 2 mps 749 mmHg 82%
    10:00 +14°C° 0 mm 2 mps 749 mmHg 78%
    11:00 +15°C° 0 mm 2 mps 749 mmHg 74%
    12:00 +16°C° 0 mm 2 mps 749 mmHg 71%
    13:00 +17°C° 0 mm 2 mps 748 mmHg 67%
    14:00 +17°C° 0 mm 2 mps 748 mmHg 67%
    15:00 +17°C° 0 mm 2 mps 748 mmHg 67%
    16:00 +17°C° 0 mm 2 mps 747 mmHg 67%
    17:00 +16°C° 0 mm 2 mps 747 mmHg 71%
    18:00 +15°C° 0 mm 1 mps 747 mmHg 75%
    19:00 +14°C° 0 mm 1 mps 747 mmHg 79%
    20:00 +14°C° 0 mm 1 mps 747 mmHg 79%
    21:00 +13°C° 0 mm 1 mps 747 mmHg 80%
    22:00 +12°C° 0 mm 1 mps 746 mmHg 81%
    23:00 +12°C° 0 mm 1 mps 746 mmHg 81%
    Show more